Fairbanks Eiels, AK

7:56 PM AKDT on May 24, 2018 (GMT -0800)
Eielson Air Force Base

Weather History for PAEI - May, 2013

Change the Weather History Date:

Saturday, May 25, 2013

  Actual Average Record
Temperature  
Mean Temperature 58 °F -  
Max Temperature 76 °F 64 °F 84 °F (2002)
Min Temperature 40 °F 42 °F 31 °F (1976)
Degree Days  
Heating Degree Days 8    
Growing Degree Days 8 (Base 50)    
Moisture  
Dew Point 30 °F    
Average Humidity 37    
Maximum Humidity 74    
Minimum Humidity 14    
Precipitation  
Precipitation 0.00 in - - ()
Sea Level Pressure  
Sea Level Pressure 29.89 in    
Wind  
Wind Speed 2 mph (West)    
Max Wind Speed 8 mph    
Max Gust Speed -    
Visibility 10 miles    
Events      
Averages and records for this station are not official NWS values.
T = Trace of Precipitation, MM = Missing Value Source: NWS Daily Summary

Daily Weather History Graph

Daily Weather History Graph

Search for Another Location

Airport or City:

Astronomy

May. 25, 2013 Rise Set
Actual Time 3:53 AM AKDT 11:40 PM AKDT
Civil Twilight 2:17 AM AKDT 1:13 AM AKDT
Nautical Twilight Sun does not set Sun does not set
Astronomical Twilight Sun does not set Sun does not set
Moon No Moon Rise 4:45 AM AKDT
Length of Visible Light 22h 55m
Length of Day
19h 47m
Full, 99% of the Moon is Illuminated
May 25
Full
May 31
Last Quarter
Jun 8
New
Jun 16
First Quarter
Jun 23
Full

Hourly Weather History & Observations

Time (AKDT) Temp. Dew Point Humidity Pressure Visibility Wind Dir Wind Speed Gust Speed Precip Events Conditions
12:55 AM 51.1 °F 34.2 °F 52% 29.96 in 10.0 mi Calm Calm - N/A   Clear
1:55 AM 47.5 °F 32.9 °F 57% 29.96 in 10.0 mi Calm Calm - N/A   Partly Cloudy
2:55 AM 43.3 °F 33.8 °F 69% 29.97 in 10.0 mi Calm Calm - N/A   Partly Cloudy
3:55 AM 41.0 °F 32.9 °F 73% 29.97 in 10.0 mi Calm Calm - N/A   Clear
4:55 AM 40.1 °F 32.5 °F 74% 29.98 in 10.0 mi Calm Calm - N/A   Clear
5:55 AM 41.4 °F 33.8 °F 74% 29.97 in 10.0 mi Calm Calm - N/A   Clear
6:55 AM 50.0 °F 35.1 °F 57% 29.96 in 10.0 mi Calm Calm - N/A   Clear
7:55 AM 53.4 °F 32.7 °F 45% 29.96 in 10.0 mi Calm Calm - N/A   Clear
8:55 AM 58.3 °F 34.5 °F 41% 29.94 in 10.0 mi Calm Calm - N/A   Clear
9:55 AM 64.4 °F 31.8 °F 30% 29.94 in 10.0 mi Calm Calm - N/A   Clear
10:55 AM 67.3 °F 31.6 °F 27% 29.92 in 10.0 mi Calm Calm - N/A   Clear
11:55 AM 69.6 °F 31.6 °F 24% 29.90 in 10.0 mi Calm Calm - N/A   Clear
12:55 PM 72.0 °F 31.5 °F 22% 29.88 in 10.0 mi NNE 8.1 mph - N/A   Clear
1:55 PM 73.2 °F 31.6 °F 22% 29.87 in 10.0 mi West 8.1 mph - N/A   Clear
2:55 PM 74.1 °F 27.9 °F 18% 29.86 in 10.0 mi SW 8.1 mph - N/A   Clear
3:55 PM 74.3 °F 25.5 °F 16% 29.85 in 10.0 mi Variable 6.9 mph - N/A   Clear
4:55 PM 74.8 °F 24.6 °F 15% 29.83 in 10.0 mi Variable 5.8 mph - N/A   Partly Cloudy
5:55 PM 75.4 °F 24.1 °F 15% 29.81 in 10.0 mi Variable 6.9 mph - N/A   Clear
6:55 PM 75.7 °F 25.0 °F 15% 29.80 in 10.0 mi East 8.1 mph - N/A   Mostly Cloudy
7:55 PM 73.0 °F 20.1 °F 14% 29.80 in 10.0 mi ENE 5.8 mph - N/A   Scattered Clouds
8:55 PM 65.5 °F 32.5 °F 29% 29.80 in 10.0 mi WSW 8.1 mph - N/A   Clear
9:55 PM 67.3 °F 28.6 °F 23% 29.81 in 10.0 mi WSW 8.1 mph - N/A   Clear
10:55 PM 63.3 °F 29.7 °F 28% 29.82 in 10.0 mi Variable 3.5 mph - N/A   Clear
11:55 PM 54.7 °F 31.5 °F 41% 29.84 in 10.0 mi Calm Calm - N/A   Clear